Kezdőlap
METAR-TAF:

METAR-TAF

Repülőterek :

Storm Lake Municipal Airport

Storm Lake, Iowa, Amerikai Egyesült Államok

földrajzi szélesség: 42-36N, földrajzi hosszúság: 095-14W, magasság: 454 m

Jelenlegi meteorológiai megfigyelések

A jelentés 21 perccel ezelõtt készült, 07:15 UTC
Északi szél 6 kt
Hőmérséklet 18°C
Páratartalom 100%
Légköri nyomás 1009 hPa
Látótávolság: 2.8 km
Borult 300 lábon
Párásság

METAR: KSLB 260715Z AUTO 01006KT 1 3/4SM BR OVC003 18/18 A2981 RMK AO2

Idő: 02:36 (07:36 UTC)


TAF: hiányzik

Meteorológiai megfigyelések és előrejelzések több, mint 4000 repülőtéren (METAR és TAF jelentéseket).

A térképen piros és sárga pontok jelzik az elérhető meteorológiai állomásokat.

Mozgassa az egeret a pont fölött, hogy megjelenjen az állomás neve.

Azután kattintson az időjárási megfigyelések és előrejelzések megtekintéséhez.

A térkép megváltoztatása: kattintson a fekete keresztel jelölt zöld gombra ráközelítéshez, a vonallal jelölt zöld gombra távolításhoz, vagy a zöld nyilakra a szomszédos térképek eléréséhez.


METAR-TAF: